TimeEST,TemperatureF,Dew PointF,Humidity,Sea Level PressureIn,VisibilityMPH,Wind Direction,Wind SpeedMPH,Gust SpeedMPH,PrecipitationIn,Events,Conditions,WindDirDegrees,DateUTC
12:54 AM,43.0,25.0,49,30.15,10.0,WNW,8.1,-,N/A,,Clear,290,2013-01-07 05:54:00
1:54 AM,41.0,32.0,70,30.16,10.0,WNW,6.9,-,N/A,,Clear,300,2013-01-07 06:54:00
2:54 AM,37.9,32.0,79,30.17,10.0,WNW,5.8,-,N/A,,Clear,290,2013-01-07 07:54:00
3:54 AM,39.0,32.0,76,30.18,10.0,WNW,5.8,-,N/A,,Clear,300,2013-01-07 08:54:00
4:54 AM,37.9,32.0,79,30.21,10.0,NW,6.9,-,N/A,,Clear,320,2013-01-07 09:54:00
5:54 AM,42.1,33.1,70,30.24,10.0,NNW,10.4,-,N/A,,Clear,340,2013-01-07 10:54:00
6:54 AM,41.0,32.0,70,30.28,10.0,NNW,8.1,-,N/A,,Clear,340,2013-01-07 11:54:00
7:54 AM,42.1,33.1,70,30.32,10.0,North,6.9,-,N/A,,Clear,360,2013-01-07 12:54:00
8:54 AM,45.0,32.0,60,30.36,10.0,North,5.8,-,N/A,,Clear,360,2013-01-07 13:54:00
9:54 AM,50.0,32.0,50,30.39,10.0,NNE,10.4,-,N/A,,Clear,20,2013-01-07 14:54:00
10:54 AM,52.0,32.0,47,30.39,10.0,North,15.0,-,N/A,,Clear,10,2013-01-07 15:54:00
11:54 AM,53.1,30.0,41,30.38,10.0,North,12.7,19.6,N/A,,Clear,10,2013-01-07 16:54:00
12:54 PM,53.1,30.0,41,30.38,10.0,North,8.1,-,N/A,,Partly Cloudy,350,2013-01-07 17:54:00
1:54 PM,53.1,30.0,41,30.40,10.0,North,8.1,-,N/A,,Clear,360,2013-01-07 18:54:00
2:54 PM,53.1,30.0,41,30.40,10.0,North,6.9,-,N/A,,Clear,360,2013-01-07 19:54:00
3:54 PM,51.1,30.0,44,30.41,10.0,NE,9.2,-,N/A,,Clear,50,2013-01-07 20:54:00
4:54 PM,46.9,30.9,54,30.43,10.0,ENE,8.1,-,N/A,,Clear,60,2013-01-07 21:54:00
5:54 PM,43.0,30.9,62,30.45,10.0,ENE,5.8,-,N/A,,Clear,60,2013-01-07 22:54:00
6:54 PM,43.0,32.0,65,30.46,10.0,East,3.5,-,N/A,,Clear,80,2013-01-07 23:54:00
7:54 PM,39.9,32.0,73,30.47,10.0,Calm,Calm,-,N/A,,Clear,0,2013-01-08 00:54:00
8:54 PM,39.9,32.0,73,30.46,10.0,Calm,Calm,-,N/A,,Clear,0,2013-01-08 01:54:00
9:54 PM,36.0,30.9,82,30.46,10.0,Calm,Calm,-,N/A,,Clear,0,2013-01-08 02:54:00
10:54 PM,37.9,30.9,76,30.46,10.0,Calm,Calm,-,N/A,,Clear,0,2013-01-08 03:54:00
11:54 PM,33.1,30.0,89,30.45,9.0,Calm,Calm,-,N/A,,Clear,0,2013-01-08 04:54:00